NOAA 16 DEB, 41429

Orbit data source: Space-Track

NOAA 16 DEB, 41429 is space debris in SSO originally from a launch on Thu, 21 Sep 2000 UTC launched from the Air Force Western Test Range (AFWTR). Debris objects in space refer to the collection of defunct objects orbiting the Earth. Examples of debris include non-operational satellites, rocket bodies, and fragments generated from explosions, collisions, or faulty payload assembly.

Loading next visibility...
Identifier
41429, 2000-055LJ
Orbit
SSO
Country
Flag of USUS
Related business
Manufacturer
Unknown
Mission
Spacecraft
Bus & Motor
Unknown
Mass
Unknown
Launch date (UTC)
2000-09-21 (25 years ago)
Launch vehicle
Unknown
Launch site
Air Force Western Test Range (AFWTR)
Object type
Payload
Rocket body
Debris
Shape & HBR
Unknown
Radar Cross Section
Small (<0.1 m²)

Expand to show TLE details & history
Last TLE update: 15 hours ago

TLE from 15 hours ago
0 NOAA 16 DEB
1 41429U 00055LJ  25259.19910031  .00003620  00000-0  14883-2 0  9994
2 41429  98.7210 340.8636 0017029  70.1972 290.1043 14.27519420493969
Epoch: 2025-09-16T04:46Z
TLE epoch observation values (Epoch: 2025-09-16T04:46:42.266Z)
Latitude
-0.00002°
Longitude
-86.20534°
Altitude
798.775 km
Speed
7.456 km/s
True Right ascension
22h 43m 27s
True Declination
0° 00' 00"
Sunlit
Object was in full shadow at epoch
Visualization orbit readout
Latitude
Unknown
Longitude
Unknown
Altitude
Unknown
Speed
Unknown
Apparent Right ascension
Unknown
Apparent Declination
Unknown
Sunlit
N/A
Visualization observer readout
Local Sidereal Time
12:38:36
Azimuth
Unknown
Elevation
Unknown
Doppler factor
Unknown
Orbital elements
Apogee altitude
809.402 km
Perigee altitude
784.965 km
Semi-major axis
7,175.32 km
Eccentricity
0.0017
Inclination
98.721°
RAAN
340.8636°
Arg. of periapsis
70.1972°
True anomaly
289.92092°
Mean anomaly
290.1043°
Eccentric anomaly
290.01262°
Mean motion
3.57093 °/min
Orbital period
100.81 mins
BSTAR
0.0014883
Loading maneuver chart data...
Computing Atmospheric mass density...
Loading historical data...
Loading historical data...
Loading historical data...
Loading historical data...
Loading historical data...
Loading historical data...
Loading historical data...

Documentation

Showing up to 5 results
|